GFSFLT1_con_lsi_132.txt.gz
Lid_Strength_Index
6 8 11 10 7 6 5 4 5 4 4 6 7 3 3 1 0 0 0 -0 -1 -1 -1 -1 -1 -1 -1 -1 -1 -1 -1 -1
8 9 7 7 6 5 5 5 4 4 7 4 3 3 1 0 0 0 0 -0 -1 -1 -1 -1 -1 -1 -1 -1 -1 -1 -1 -1
9 8 7 6 5 5 5 5 4 4 6 6 3 1 1 1 0 1 0 -0 -1 -1 -1 -1 -1 -1 -1 -1 -1 -1 -1 -1
10 8 6 5 5 5 5 4 4 4 6 5 2 2 1 1 1 0 0 -0 -0 -1 -1 -1 -1 -1 -1 -1 -1 -1 -1 -1
9 8 7 6 4 5 5 5 5 3 6 5 3 1 1 1 0 0 0 0 -0 -1 -1 -1 -1 -1 -1 -1 -1 -1 -1 -1
9 9 8 5 4 4 4 5 4 3 6 7 3 1 1 1 1 0 0 0 0 -0 -0 -1 -1 -1 -1 -1 -1 -1 -1 -1
9 9 7 5 6 4 3 5 5 3 4 4 3 1 1 2 1 1 1 0 -0 0 -0 -1 -1 -1 -1 -1 -1 -1 -1 -1
6 6 7 6 6 5 5 5 5 4 3 2 3 3 3 3 3 2 2 1 0 0 -0 -0 -0 -1 -1 -1 -1 -1 -1 -1
5 6 5 6 6 4 6 6 5 4 4 5 3 3 3 2 2 2 1 1 0 0 -0 -0 -0 -0 -0 -1 -1 -1 -1 -1
5 5 6 7 6 6 5 5 4 4 4 5 4 3 3 3 2 2 1 1 0 0 0 -0 -0 0 -0 -0 -0 -0 -1 -1
5 5 5 5 7 6 6 4 4 4 4 5 4 4 2 1 2 2 2 1 1 0 0 -0 -1 -0 -0 -0 -0 -0 -1 -1
5 5 5 6 6 5 5 5 5 4 4 5 5 3 3 2 2 2 2 2 1 0 0 -0 -0 -1 -0 -0 -0 -0 -0 -0
6 6 6 5 8 7 5 4 6 5 5 4 4 3 3 2 3 2 2 1 1 1 0 0 0 -0 -0 -0 -0 -0 -0 -1
7 6 6 6 11 6 4 5 5 5 5 5 4 4 3 2 2 2 2 2 1 0 1 0 0 0 -0 -0 -0 -0 -0 -1
10 6 6 8 10 6 5 5 6 6 6 5 4 3 2 2 0 2 2 -0 -0 -0 1 1 0 0 0 -0 -0 -0 -0 -0
11 7 7 9 9 6 5 5 7 6 6 5 4 4 2 1 1 0 -0 -0 -1 -0 -0 1 0 0 0 0 0 -0 -0 0
8 6 7 8 8 7 6 5 7 7 7 6 4 4 2 2 1 1 0 0 -0 -1 -0 0 1 2 2 2 1 1 0 -0
7 7 8 8 8 7 7 6 5 6 7 6 6 5 2 2 1 1 1 0 -1 -0 -0 0 0 0 0 1 1 1 0 0
9 7 7 7 9 8 7 7 5 5 6 5 5 5 3 2 2 2 1 0 0 -0 -0 0 0 0 0 0 1 1 1 1
8 9 11 7 12 9 7 7 6 5 6 6 5 4 3 1 1 0 1 1 0 -0 -0 0 -0 1 1 2 3 1 1 1

GFSFLT1_con_lsi_135.txt.gz
Lid_Strength_Index
12 12 13 13 9 8 6 6 6 7 5 6 7 4 3 1 1 0 0 -0 -0 -1 -1 -1 -1 -1 -1 -1 -1 -1 -1 -1
13 13 10 10 8 7 6 6 6 5 8 5 3 3 2 1 0 1 0 -0 -0 -1 -1 -1 -1 -1 -1 -1 -1 -1 -1 -1
14 11 8 8 7 6 7 6 6 5 8 6 3 2 1 1 1 1 1 -0 -0 -0 -0 -1 -1 -1 -1 -1 -1 -1 -1 -1
14 11 8 7 7 7 6 6 6 6 7 6 2 2 1 1 1 0 1 0 -0 -1 -1 -0 -1 -1 -1 -1 -1 -1 -1 -1
12 10 9 7 6 7 7 6 6 5 8 5 3 2 1 1 1 0 0 0 0 -0 -0 -1 -1 -1 -1 -1 -1 -1 -1 -1
12 11 10 7 6 6 6 6 6 5 8 8 4 2 2 1 1 1 1 0 0 0 0 -0 -0 -1 -1 -1 -1 -1 -1 -1
13 11 9 7 7 7 6 7 6 4 5 4 2 2 2 2 2 2 1 1 0 0 0 0 0 -0 -1 -1 -1 -1 -1 -1
9 9 9 7 8 8 7 7 7 6 4 3 3 3 4 3 3 3 2 1 1 1 0 1 -0 0 0 -0 -0 0 0 0
8 7 8 7 8 7 8 8 7 7 6 5 4 4 3 3 3 3 2 1 1 1 1 1 1 0 0 1 1 0 0 0
7 8 8 9 8 8 8 7 5 5 4 4 4 5 4 4 3 3 2 2 1 1 0 1 0 0 0 0 0 0 0 0
6 7 8 6 7 8 8 5 4 4 5 4 4 4 3 3 2 2 3 2 1 1 1 0 0 1 1 0 0 0 0 -0
7 7 6 7 6 6 6 5 5 5 6 6 4 4 4 3 3 3 3 4 3 1 1 0 1 0 1 1 1 0 1 0
7 7 7 6 8 8 5 5 5 5 5 5 5 3 4 3 3 3 2 2 3 0 0 1 1 0 0 1 0 0 0 1
7 7 7 7 11 7 5 6 6 5 5 5 6 6 3 3 3 2 2 2 2 2 2 1 1 0 0 1 1 0 0 0
10 7 8 8 11 7 5 6 6 6 6 5 6 5 5 3 2 2 2 2 2 1 2 1 1 0 0 0 0 0 0 0
12 9 8 10 10 7 6 6 6 6 6 6 6 5 4 3 2 3 3 2 3 2 2 2 1 1 1 1 0 0 0 0
10 8 9 10 10 8 6 6 7 7 7 8 7 5 3 3 4 4 3 2 3 3 2 1 1 2 2 3 2 2 1 1
9 7 9 10 10 8 7 8 7 7 7 8 8 6 5 3 3 3 4 2 2 2 2 2 3 2 2 2 2 1 1 0
11 8 8 10 11 11 9 8 8 6 6 6 6 7 5 4 3 3 3 3 3 2 2 1 1 1 1 2 2 2 2 2
10 10 14 10 16 12 10 9 8 8 7 7 7 5 4 4 3 3 3 2 2 2 2 2 1 2 2 3 4 2 2 2

GFSFLT1_con_lsi_138.txt.gz
Lid_Strength_Index
12 14 15 14 10 9 8 5 6 6 5 6 6 4 4 1 1 0 0 -0 -0 -1 -1 -1 -1 -1 -1 -1 -1 -1 -1 -1
13 13 12 11 9 9 8 6 5 5 7 5 2 3 2 1 1 1 0 -0 -0 -1 -1 -1 -1 -1 -1 -1 -1 -1 -1 -1
15 12 11 9 8 8 8 6 6 5 7 6 4 1 1 1 1 1 0 -0 -0 -0 -1 -1 -1 -1 -1 -1 -1 -1 -1 -1
16 12 10 9 8 8 7 6 5 6 7 6 2 2 2 1 1 0 1 0 -0 -0 -1 -1 -1 -1 -1 -1 -1 -1 -1 -1
14 13 11 9 7 9 9 8 7 5 8 6 4 2 1 1 1 0 0 0 0 -0 -0 -1 -1 -1 -1 -1 -1 -1 -1 -1
14 13 12 8 7 8 9 8 5 4 8 8 4 3 1 1 1 1 1 0 0 -0 -0 -0 -0 -1 -1 -1 -1 -1 -1 -1
14 13 11 8 8 7 7 7 6 5 5 4 2 2 2 2 2 2 1 1 0 0 -0 -0 0 -0 -1 -1 -1 -1 -1 -1
11 11 10 9 9 9 8 8 8 6 4 3 2 3 4 4 3 3 2 1 0 0 0 0 -0 -0 0 -0 -0 0 0 0
9 9 9 10 9 8 8 9 8 7 6 4 4 4 4 3 3 3 2 1 1 0 0 0 0 -0 0 0 0 0 0 0
8 8 9 10 8 8 8 8 6 6 4 4 4 4 4 4 3 3 2 1 1 1 0 1 0 0 0 0 0 0 0 0
8 8 9 8 9 8 8 6 6 6 4 4 4 4 3 3 2 2 2 3 2 1 1 1 1 0 0 0 0 0 0 0
8 8 9 8 8 8 7 6 6 6 6 4 4 4 4 3 3 2 2 2 2 1 2 0 1 1 1 1 0 -0 -0 -0
8 9 9 7 8 8 7 6 7 6 6 6 4 4 4 3 3 2 2 1 1 1 1 2 1 1 2 1 1 1 1 1
9 8 7 7 11 7 6 7 7 7 6 6 7 6 3 3 3 2 2 2 1 0 0 1 4 1 0 2 1 1 1 2
10 8 8 9 11 7 5 6 7 7 7 6 6 5 3 3 2 2 2 2 2 1 1 1 0 2 0 0 1 0 1 1
11 9 9 11 11 8 6 6 8 7 6 6 7 5 3 3 2 2 2 1 1 1 1 1 1 1 1 0 0 0 1 1
10 8 10 11 10 8 6 7 8 7 7 7 7 5 5 3 3 3 3 3 4 2 2 1 1 2 2 2 2 1 0 0
10 8 9 11 11 8 7 7 7 8 7 7 7 6 4 3 3 4 4 3 3 3 3 2 1 1 2 2 2 1 1 1
11 9 9 11 12 10 8 8 8 7 6 7 7 7 4 4 4 3 3 3 3 3 2 2 2 2 3 3 4 4 3 2
10 11 15 10 17 13 10 10 9 8 8 8 6 5 4 5 4 3 3 2 2 2 2 2 2 2 3 3 4 3 3 2

GFSFLT1_con_lsi_141.txt.gz
Lid_Strength_Index
13 14 16 14 11 10 9 6 6 7 5 6 7 4 4 2 1 0 0 -0 -0 -1 -1 -1 -1 -1 -1 -1 -1 -1 -1 -1
13 14 12 12 11 9 10 9 7 6 7 5 3 3 2 1 0 1 0 -0 -0 -1 -1 -1 -1 -1 -1 -1 -1 -1 -1 -1
15 13 11 10 9 9 10 9 7 6 8 6 3 2 1 1 1 1 1 0 -0 -1 -1 -1 -1 -1 -1 -1 -1 -1 -1 -1
16 13 10 10 9 9 9 8 6 7 7 7 3 2 2 1 1 0 0 -0 0 -1 -1 -1 -1 -1 -1 -1 -1 -1 -1 -1
15 13 11 10 9 9 10 7 7 5 8 6 4 2 1 1 1 0 0 0 -0 0 -0 -1 -1 -1 -1 -1 -1 -1 -1 -1
14 13 12 10 9 8 9 7 5 5 9 9 4 2 1 1 1 1 0 0 0 -0 -0 0 0 -1 -1 -1 -1 -1 -1 -1
14 13 12 10 11 8 7 7 6 5 5 4 2 2 2 2 2 2 1 1 0 0 0 0 -0 -0 -1 -1 -1 -1 -1 -1
12 11 11 10 10 9 8 9 9 6 4 3 3 3 4 4 4 3 2 2 1 0 0 1 -0 0 0 -0 0 0 0 0
10 10 9 10 9 9 9 10 11 7 6 4 4 4 4 3 3 3 2 1 1 1 1 0 0 -0 1 -0 -0 0 0 0
9 9 10 10 8 9 9 9 8 8 4 4 5 4 4 4 3 3 2 2 1 1 1 1 0 -0 -0 0 -0 -0 0 0
8 9 9 9 9 9 8 6 6 5 4 5 5 4 3 3 2 2 2 2 1 1 1 1 1 0 0 0 0 0 0 0
8 9 10 9 10 8 7 6 6 6 5 5 4 4 4 3 3 3 2 2 1 1 1 1 0 0 1 0 0 0 0 0
9 9 10 8 10 10 7 7 7 7 7 5 4 4 4 3 3 2 2 1 1 1 0 2 1 0 0 1 1 2 1 0
8 9 9 7 13 9 7 7 7 7 7 6 6 4 3 3 3 2 2 2 1 1 1 1 3 1 0 1 2 1 2 1
11 9 8 9 11 8 6 7 8 7 7 7 7 6 4 3 2 2 2 2 2 2 1 1 2 2 0 1 2 2 2 1
12 10 10 11 11 8 6 7 8 8 7 7 7 5 4 3 2 2 2 2 2 1 1 3 1 1 1 1 1 1 2 2
11 9 10 11 11 8 7 7 8 9 8 7 8 5 3 3 2 2 3 3 2 2 2 3 2 2 2 2 1 1 1 1
11 8 9 10 11 9 7 7 7 8 8 8 8 6 6 4 3 3 3 4 4 3 2 2 2 1 1 1 2 2 2 1
11 9 10 11 13 11 8 7 7 8 8 8 7 6 5 6 5 5 4 4 4 4 4 3 2 1 1 2 2 3 3 3
11 12 15 10 16 12 10 9 9 8 9 7 7 7 5 5 4 3 3 4 3 2 2 2 2 3 3 4 5 4 4 3

GFSFLT1_con_lsi_147.txt.gz
Lid_Strength_Index
7 8 11 11 8 7 7 7 7 6 4 5 7 4 3 1 0 -0 -0 -1 -1 -1 -1 -1 -1 -1 -1 -1 -1 -1 -1 -1
9 10 9 10 8 7 7 7 7 5 7 4 3 3 1 0 -0 0 -0 -1 -1 -1 -1 -1 -1 -1 -1 -1 -1 -1 -1 -1
10 9 8 9 7 7 7 7 7 5 7 7 3 1 1 1 0 0 -0 -1 -1 -1 -1 -1 -1 -1 -1 -1 -1 -1 -1 -1
11 9 7 8 7 7 7 7 5 6 6 6 2 2 1 0 0 -0 0 -1 -1 -1 -1 -1 -1 -1 -1 -1 -1 -1 -1 -1
9 9 8 7 7 7 7 7 6 5 7 6 4 2 1 0 0 -0 -0 -1 -1 -1 -1 -1 -1 -1 -1 -1 -1 -1 -1 -1
10 10 9 7 7 7 6 6 4 4 7 8 4 1 1 1 1 0 -0 -0 -0 -1 -1 -1 -1 -1 -1 -1 -1 -1 -1 -1
10 10 8 7 7 5 4 6 5 5 5 4 2 1 2 2 2 1 1 0 -0 -0 -1 -1 -1 -1 -1 -1 -1 -1 -1 -1
9 9 8 7 6 5 6 7 7 6 4 3 2 3 3 3 3 2 2 1 -0 -0 -0 -1 -1 -1 -1 -1 -1 -1 -1 -1
8 9 8 8 7 6 6 8 6 7 6 4 3 3 3 3 2 2 1 1 0 -0 -1 -1 -0 -1 -1 -1 -1 -1 -1 -2
7 8 9 8 6 6 6 6 5 4 4 4 4 4 3 3 3 2 2 1 0 -0 -0 -1 -1 -1 -1 -1 -1 -1 -1 -1
6 6 9 8 8 6 6 5 4 4 4 4 4 3 3 2 2 2 2 1 1 -0 -0 -0 -0 -1 -1 -0 -1 -1 -1 -1
6 6 8 9 8 6 6 4 5 5 5 4 4 3 3 3 2 2 1 1 0 0 -0 -0 -0 -1 -0 -1 -1 -1 -1 -1
6 6 7 8 9 8 6 5 6 5 5 4 4 3 3 2 2 2 1 1 1 0 -0 -0 -0 -0 -1 -1 -1 -1 -1 -1
6 6 7 8 10 8 5 7 6 6 5 5 4 3 2 2 2 1 1 1 0 0 -0 -0 -0 -0 -1 -1 -1 -1 -1 -1
9 6 6 7 9 8 6 6 6 5 5 4 4 3 2 2 2 1 1 1 1 0 0 -0 -1 -1 -1 -1 -1 -1 -1 -1
10 8 6 8 8 7 6 6 6 5 4 4 4 3 2 2 1 1 1 1 0 0 0 -0 -0 -1 -1 -1 -1 -1 -1 -1
9 7 7 8 8 7 6 6 6 5 5 4 4 3 2 2 2 1 1 1 1 1 0 0 0 1 1 0 -0 -0 -0 -1
9 7 7 9 8 7 6 6 5 5 5 4 4 3 3 3 2 2 2 1 1 1 0 0 0 0 -0 -0 -0 -0 -0 1
10 8 7 8 9 9 7 6 5 5 4 4 4 3 3 3 3 2 2 1 1 1 0 0 -0 -0 -0 0 0 1 1 2
10 10 12 8 13 10 8 8 6 5 5 4 4 3 3 3 3 2 2 1 1 0 0 0 -0 0 1 2 2 2 3 3